Wind_Speed
4 4 4 5 4 4 3 3 2 2 2 2 2 2 3 4 5 4 4 4 4 4 4 4 5 4 5 4 4 5 5 5 6 5 5 6 6 6 5 5 5 6 6
5 4 4 5 5 5 4 4 3 3 3 3 3 3 3 4 4 5 5 5 5 5 5 5 5 5 5 6 6 6 6 6 6 7 7 7 7 7 7 7 7 6 6
5 5 5 5 5 5 5 4 4 4 3 4 4 4 4 5 5 6 5 5 5 6 6 6 6 6 6 7 7 7 8 7 7 7 8 7 7 8 8 8 8 7 7
5 6 6 6 6 5 5 5 5 5 4 4 4 4 5 5 5 6 6 6 6 6 7 7 7 7 7 7 7 8 8 9 9 9 9 9 9 9 9 9 8 8 8
6 5 6 7 7 6 6 6 6 5 5 5 5 5 5 6 6 6 7 7 6 7 7 7 8 7 8 8 8 8 9 9 10 10 9 10 10 10 10 10 10 10 10
6 5 6 6 6 7 6 6 6 6 6 6 5 6 5 6 6 6 7 7 7 7 8 8 9 8 9 9 9 9 9 9 10 10 10 10 10 10 10 11 11 11 11
6 5 6 6 7 7 7 6 6 6 6 6 6 6 6 5 5 6 7 8 8 8 8 9 9 9 9 10 10 10 10 11 11 10 10 10 11 11 11 12 12 12 12
6 6 6 7 7 7 7 7 7 7 7 6 6 7 6 6 6 7 7 7 8 8 9 9 10 10 10 10 11 11 11 12 12 12 11 11 11 12 12 12 12 12 12
7 7 7 8 8 7 7 8 8 8 8 8 7 7 7 7 7 8 8 8 8 9 9 10 10 11 11 11 11 12 12 12 12 12 12 12 11 12 12 12 12 13 13
7 8 9 8 8 8 8 8 8 8 8 8 8 8 7 7 8 8 8 8 9 9 9 10 10 10 11 12 12 12 12 12 12 12 12 12 13 13 13 13 13 14 14
7 8 8 8 8 8 8 9 9 8 8 8 8 8 8 8 8 9 9 9 10 10 10 10 10 11 11 13 13 13 12 13 13 13 13 14 14 13 13 14 14 14 14
8 8 8 9 9 9 9 9 9 8 8 8 8 9 9 9 9 9 9 9 10 10 11 11 11 11 12 13 14 14 14 14 14 14 15 14 14 14 14 15 14 15 15
9 9 8 8 9 9 9 9 9 9 9 9 9 9 9 9 10 10 10 10 10 11 11 11 11 12 12 12 13 13 14 14 14 14 14 13 14 15 15 15 15 15 15
9 9 9 9 9 9 9 9 9 9 9 10 10 10 10 10 10 10 11 11 11 11 11 11 11 12 12 13 13 14 14 14 14 14 14 14 14 14 15 15 15 14 15
10 10 10 10 10 10 10 9 9 9 10 10 10 10 10 10 10 11 11 11 12 12 12 11 11 11 12 12 12 13 13 14 14 14 14 14 15 15 14 14 15 15 15
11 11 10 10 11 11 10 10 10 10 10 10 10 10 11 11 11 11 10 11 12 12 11 11 11 11 12 12 13 13 13 14 14 14 14 15 15 15 15 14 15 16 17
10 11 11 11 11 11 11 11 11 10 10 10 10 10 10 10 10 10 11 11 11 11 11 11 11 11 11 12 13 13 14 14 13 14 15 15 15 15 15 15 16 16 17
11 11 12 12 12 12 12 11 12 12 11 11 10 10 10 10 10 10 10 11 11 11 10 10 11 11 12 12 12 13 13 13 14 14 14 14 14 14 15 16 16 16 17
12 12 12 12 12 12 12 13 13 12 11 11 10 10 10 10 11 11 11 11 11 11 11 12 12 12 12 12 13 13 13 14 14 14 14 14 14 14 14 14 15 15 15
12 12 13 12 12 12 12 12 12 12 12 12 11 11 11 11 11 11 11 11 10 10 11 12 12 13 13 12 13 13 14 14 14 14 14 14 14 14 14 15 15 15 15
12 12 12 13 13 13 13 13 12 12 12 12 12 12 13 13 12 11 11 11 11 11 12 12 12 12 13 13 13 13 13 14 14 14 14 14 14 14 15 15 15 15 15
13 13 13 13 13 13 13 13 13 12 13 13 13 13 13 13 12 12 12 12 12 13 13 13 12 13 13 13 13 13 13 14 14 15 15 14 15 15 15 15 15 16 16
14 14 14 14 15 15 14 14 14 14 14 14 14 14 14 14 13 12 12 13 13 14 14 14 14 14 14 14 14 14 15 15 15 15 15 15 16 16 16 16 16 17 17
14 15 15 15 16 16 15 15 15 15 15 14 15 15 15 14 14 14 14 14 15 15 15 15 15 15 15 15 15 16 16 16 16 16 16 16 16 16 16 16 17 17 18
15 15 15 16 16 17 16 16 16 15 15 15 15 15 15 15 15 15 15 16 16 16 16 16 16 16 16 16 16 17 17 17 17 17 17 17 17 17 17 17 17 18 19
15 15 15 16 17 17 17 17 17 17 17 16 16 16 16 16 17 17 17 17 17 17 17 17 17 17 18 18 18 18 18 18 18 19 19 19 19 18 18 18 19 19 20
Wind_Direction
221 211 199 195 193 193 194 195 204 211 199 194 200 211 217 209 203 207 219 224 232 231 228 231 230 228 228 233 230 227 226 225 222 221 219 223 222 220 222 226 231 234 232
232 229 217 210 209 207 214 221 225 231 225 218 222 231 224 217 215 220 226 232 239 242 236 236 236 234 235 240 240 237 236 235 233 230 229 230 231 232 232 233 232 234 231
232 229 224 222 222 221 230 235 238 243 242 233 231 238 231 228 232 234 233 240 246 244 243 239 239 239 241 244 245 244 243 242 244 240 238 236 238 238 238 237 237 239 241
230 228 226 226 229 238 236 240 246 244 247 247 243 241 236 233 237 237 238 248 248 245 244 243 243 242 244 246 248 247 245 245 246 246 242 241 241 242 242 245 242 241 244
228 229 228 229 235 241 240 244 248 248 250 252 251 248 252 244 245 244 245 252 249 245 246 248 248 246 245 247 249 247 249 247 248 248 249 247 244 242 244 244 243 244 247
225 226 230 232 238 240 244 246 250 250 254 253 254 256 256 250 250 247 250 253 246 244 244 246 248 249 248 249 249 249 251 251 250 249 249 250 247 244 243 245 246 245 247
231 235 236 236 239 241 243 244 246 249 253 253 256 261 259 255 255 256 258 256 253 249 250 249 249 250 252 253 253 253 252 252 251 250 248 250 248 244 244 246 247 248 249
239 240 241 241 244 247 249 249 250 251 252 251 257 262 265 262 263 265 265 262 260 256 255 254 253 252 254 252 252 254 254 254 251 250 250 250 249 246 247 248 251 254 255
241 241 245 243 245 248 251 255 255 257 260 260 258 259 263 266 269 272 270 264 262 260 259 256 258 258 258 258 256 255 255 254 252 252 251 252 253 253 255 255 257 259 258
243 244 244 241 244 247 251 255 259 260 259 260 262 265 266 267 269 270 270 268 265 265 265 261 261 262 260 263 261 258 256 252 250 252 254 256 258 258 258 259 261 263 261
246 246 246 241 243 246 249 251 258 264 261 262 263 262 264 269 271 270 270 272 269 266 265 264 265 265 265 263 262 259 257 256 253 255 258 260 260 259 259 259 261 262 260
247 248 247 243 245 248 249 252 256 260 259 261 265 265 265 271 274 273 273 273 272 269 268 267 269 268 265 263 260 257 257 258 256 257 260 261 259 259 259 260 260 262 260
245 245 247 247 248 251 253 255 257 259 259 263 268 266 268 272 275 276 276 276 276 273 271 270 270 270 265 262 261 258 258 256 256 257 257 257 259 259 259 260 262 262 258
245 244 246 249 250 252 255 259 260 262 264 267 269 269 271 274 276 276 277 278 278 278 276 276 279 269 263 261 263 262 261 257 257 258 257 256 257 258 259 261 261 260 256
244 245 245 247 250 253 258 261 264 266 268 267 268 269 270 273 275 278 279 278 278 278 277 276 275 273 265 260 256 260 262 260 257 257 256 255 255 254 256 257 257 257 255
247 246 247 246 250 254 258 262 264 268 267 265 269 270 271 273 275 276 278 279 279 279 277 276 273 272 270 268 265 262 260 259 259 256 255 254 253 250 252 253 253 251 252
248 246 247 247 251 255 259 262 261 263 266 268 270 271 273 276 278 278 278 280 280 279 278 275 271 269 268 268 268 266 262 261 259 257 255 253 254 253 254 256 256 254 255
252 248 244 246 251 256 259 260 261 265 266 268 271 273 276 279 280 280 279 280 280 278 275 275 275 274 273 272 270 268 265 265 263 262 260 258 257 258 259 260 261 259 256
254 250 246 249 254 258 261 262 263 262 263 264 269 273 276 279 282 283 281 279 278 277 273 273 274 275 275 274 272 269 266 264 264 263 263 262 262 263 263 263 263 265 264
257 254 253 253 256 259 261 264 263 264 264 265 268 272 276 279 282 284 283 280 281 280 278 277 275 273 273 273 274 273 269 264 264 265 264 262 262 263 263 264 265 266 266
261 259 257 255 256 259 262 264 264 264 266 265 267 272 275 278 280 281 280 278 279 281 281 281 279 276 275 275 275 274 272 268 266 266 264 263 263 264 264 264 265 266 266
262 262 261 258 258 260 262 262 265 266 266 267 268 270 274 277 277 276 275 277 279 281 281 280 278 278 278 276 276 277 275 269 269 266 263 262 264 265 264 264 264 266 266
262 262 262 261 259 260 261 264 264 265 267 268 271 274 273 274 274 274 276 278 280 281 279 277 278 281 279 278 276 275 274 269 271 266 263 262 263 264 264 265 266 267 265
265 264 262 261 259 259 262 265 266 267 268 269 271 273 272 273 274 276 278 279 278 279 279 280 280 278 278 279 277 275 273 270 269 266 264 264 264 265 266 267 266 267 266
266 264 263 262 261 262 263 265 267 267 268 272 275 276 276 275 275 276 277 279 279 281 282 280 279 278 280 280 279 276 274 272 269 266 265 265 266 267 268 268 267 267 266
268 267 266 265 265 266 265 265 267 268 271 271 272 273 272 272 273 274 274 276 279 281 282 281 278 279 279 280 278 275 274 271 270 268 266 266 267 267 268 269 269 267 266
Height
5878 5878 5878 5878 5878 5878 5878 5878 5878 5878 5877 5877 5877 5877 5876 5876 5876 5877 5877 5877 5877 5876 5876 5877 5877 5877 5877 5877 5878 5878 5877 5877 5877 5877 5878 5877 5878 5878 5878 5879 5879 5879 5879
5878 5877 5877 5877 5877 5877 5877 5877 5877 5877 5877 5877 5877 5876 5876 5876 5876 5876 5876 5876 5876 5876 5876 5876 5876 5876 5876 5877 5877 5877 5877 5877 5877 5877 5877 5877 5877 5877 5878 5878 5878 5878 5878
5876 5876 5877 5877 5877 5876 5877 5877 5877 5877 5877 5877 5876 5876 5875 5875 5875 5875 5875 5875 5875 5875 5875 5875 5875 5875 5875 5876 5876 5876 5876 5876 5876 5876 5876 5876 5876 5876 5877 5877 5877 5877 5878
5875 5876 5876 5876 5876 5876 5876 5876 5876 5876 5876 5876 5875 5875 5874 5874 5874 5874 5874 5874 5874 5874 5874 5874 5874 5874 5874 5874 5874 5874 5874 5875 5875 5875 5875 5875 5875 5875 5876 5876 5876 5876 5877
5875 5875 5875 5875 5875 5875 5875 5875 5875 5875 5875 5875 5874 5874 5873 5873 5873 5873 5873 5873 5873 5873 5873 5873 5873 5873 5873 5873 5873 5873 5873 5873 5873 5873 5873 5873 5874 5874 5874 5874 5875 5875 5875
5873 5873 5873 5874 5874 5874 5874 5874 5874 5874 5874 5874 5873 5873 5872 5872 5871 5871 5872 5871 5871 5871 5871 5871 5871 5871 5871 5871 5871 5871 5871 5871 5871 5871 5872 5872 5872 5872 5872 5873 5873 5873 5873
5872 5872 5872 5873 5873 5873 5873 5873 5873 5873 5873 5873 5872 5872 5871 5871 5870 5870 5870 5870 5870 5870 5870 5870 5870 5869 5869 5869 5869 5869 5869 5870 5870 5870 5870 5870 5870 5870 5870 5870 5871 5871 5871
5871 5871 5871 5871 5872 5872 5872 5872 5872 5871 5871 5871 5871 5870 5870 5869 5869 5869 5869 5868 5868 5868 5868 5868 5868 5868 5867 5867 5867 5867 5868 5868 5868 5868 5868 5868 5868 5868 5868 5868 5869 5869 5869
5870 5870 5870 5870 5870 5870 5870 5870 5870 5870 5870 5870 5870 5869 5869 5868 5868 5868 5867 5867 5866 5866 5866 5866 5866 5866 5865 5865 5865 5866 5865 5865 5865 5866 5866 5866 5866 5866 5866 5866 5866 5867 5867
5868 5868 5868 5868 5868 5868 5868 5869 5868 5868 5868 5868 5868 5868 5867 5867 5866 5866 5866 5865 5865 5864 5864 5864 5864 5864 5864 5863 5863 5863 5863 5863 5863 5863 5864 5864 5864 5864 5864 5864 5864 5864 5864
5867 5867 5867 5867 5867 5867 5867 5867 5867 5867 5867 5866 5866 5866 5865 5865 5865 5864 5864 5863 5863 5862 5862 5862 5862 5862 5861 5861 5861 5861 5861 5861 5861 5861 5861 5861 5861 5862 5862 5861 5861 5861 5861
5866 5865 5865 5865 5865 5865 5865 5865 5865 5865 5865 5865 5864 5864 5863 5863 5863 5862 5862 5861 5861 5860 5860 5860 5860 5859 5859 5859 5858 5858 5858 5858 5858 5858 5859 5859 5859 5859 5859 5859 5858 5858 5857
5864 5864 5864 5864 5864 5864 5864 5863 5863 5863 5863 5863 5862 5862 5862 5861 5861 5860 5860 5859 5859 5858 5858 5857 5857 5857 5856 5856 5856 5855 5855 5855 5855 5856 5856 5856 5856 5856 5856 5856 5855 5854 5853
5862 5862 5862 5862 5862 5862 5862 5862 5862 5861 5861 5861 5860 5860 5859 5859 5858 5858 5857 5857 5856 5856 5855 5855 5854 5854 5854 5854 5853 5852 5853 5852 5853 5853 5853 5853 5853 5853 5853 5853 5852 5851 5851
5860 5861 5861 5861 5861 5860 5860 5860 5860 5860 5859 5858 5858 5857 5857 5857 5856 5856 5855 5854 5854 5853 5853 5852 5852 5851 5851 5851 5850 5850 5850 5850 5850 5850 5850 5850 5850 5850 5850 5850 5849 5849 5849
5859 5859 5859 5859 5859 5859 5859 5858 5858 5857 5857 5857 5856 5855 5855 5854 5854 5853 5852 5852 5851 5850 5850 5849 5849 5849 5848 5848 5848 5847 5847 5847 5847 5847 5847 5847 5847 5847 5847 5847 5846 5846 5846
5856 5857 5857 5857 5857 5857 5856 5856 5856 5855 5855 5854 5854 5853 5852 5852 5851 5851 5850 5849 5848 5848 5847 5847 5846 5846 5845 5845 5845 5844 5844 5844 5843 5843 5843 5843 5844 5844 5844 5844 5844 5843 5843
5854 5854 5855 5855 5855 5854 5854 5854 5853 5853 5853 5852 5851 5851 5850 5850 5849 5848 5847 5846 5845 5845 5844 5844 5843 5843 5842 5842 5841 5841 5841 5840 5840 5840 5840 5840 5840 5840 5840 5840 5840 5840 5841
5851 5852 5852 5852 5852 5852 5852 5851 5851 5850 5850 5850 5849 5849 5848 5847 5846 5845 5845 5844 5843 5842 5842 5841 5841 5840 5839 5839 5838 5837 5837 5837 5837 5837 5837 5837 5837 5837 5837 5837 5837 5837 5837
5849 5849 5849 5849 5849 5849 5849 5849 5848 5848 5848 5847 5847 5846 5845 5845 5844 5843 5842 5841 5840 5840 5839 5838 5838 5837 5836 5836 5835 5834 5834 5834 5834 5834 5833 5834 5834 5834 5834 5834 5834 5834 5834
5846 5846 5846 5846 5846 5846 5846 5846 5846 5845 5845 5844 5844 5843 5843 5842 5841 5840 5839 5839 5838 5837 5836 5835 5835 5834 5833 5832 5832 5831 5830 5830 5830 5830 5830 5830 5830 5830 5830 5830 5830 5830 5830
5844 5844 5844 5843 5843 5843 5843 5843 5843 5843 5842 5842 5841 5840 5840 5839 5838 5837 5836 5836 5835 5834 5833 5832 5832 5831 5830 5829 5828 5828 5827 5827 5827 5826 5826 5826 5827 5827 5827 5827 5826 5827 5826
5841 5841 5841 5840 5840 5840 5840 5840 5839 5839 5839 5838 5838 5837 5836 5836 5835 5834 5833 5832 5832 5831 5830 5829 5828 5827 5826 5825 5824 5824 5823 5823 5823 5822 5822 5822 5822 5823 5823 5823 5823 5823 5823
5838 5838 5837 5837 5837 5837 5837 5836 5836 5836 5835 5835 5835 5834 5833 5832 5831 5830 5830 5829 5828 5827 5826 5825 5824 5823 5822 5821 5820 5819 5819 5819 5818 5818 5818 5818 5818 5818 5819 5818 5818 5818 5818
5834 5834 5834 5833 5833 5833 5833 5833 5832 5832 5831 5831 5831 5830 5829 5828 5827 5827 5826 5825 5824 5823 5822 5821 5820 5819 5818 5817 5816 5815 5814 5814 5814 5814 5814 5814 5814 5814 5814 5814 5814 5814 5814
5830 5830 5830 5829 5829 5829 5829 5829 5828 5828 5827 5827 5827 5826 5825 5825 5824 5823 5822 5821 5820 5818 5817 5816 5815 5814 5813 5812 5811 5810 5809 5809 5808 5809 5809 5809 5809 5809 5809 5809 5809 5809 5809